Tracking 19827 objects as of 21-Aug-2019
HD Live streaming from Space Station
objects crossing your sky now

COSMOS 2251 DEB

Track COSMOS 2251 DEB now!
10-day predictions


NORAD ID: 35288
Int'l Code: 1993-036AJS
Perigee: 708.5 km
Apogee: 779.5 km
Inclination: 74.0 °
Period: 99.5 minutes
Semi major axis: 7114 km
RCS: 0.0003 m2 (small)
Launch date: June 16, 1993
Source: Commonwealth of Independent States (former USSR) (CIS)
Launch site: PLESETSK MISSILE AND SPACE COMPLEX (PKMTR)

Note: This is SATELLITE DEBRIS
aabbcc
Your satellite tracking list
Your tracking list is empty




NASA's NSSDC Master Catalog

Two Line Element Set (TLE):
1 35288U 93036AJS 19232.88480314  .00000267  00000-0  80615-4 0  9999
2 35288  73.9551  57.7493 0049907  93.4309 267.2559 14.46584718545053
Source of the keplerian elements: AFSPC